Tracking 19280 objects as of 15-Nov-2018
HD Live streaming from Space Station
objects crossing your sky now

RADUGA 1-4

Track RADUGA 1-4 now!
RADUGA 1-4 is classified as:


NORAD ID: 25642
Int'l Code: 1999-010A
Perigee: 35,766.2 km
Apogee: 35,818.2 km
Inclination: 14.5 °
Period: 1,436.0 minutes
Semi major axis: 42163 km
RCS: 12.5893 m2 (large)
Launch date: February 28, 1999
Source: Commonwealth of Independent States (former USSR) (CIS)
Launch site: TYURATAM MISSILE AND SPACE COMPLEX (TTMTR)

Military communication.
aabbcc
Your satellite tracking list
Your tracking list is empty




NASA's NSSDC Master Catalog

Two Line Element Set (TLE):
1 25642U 99010A   18318.66930174 -.00000368  00000-0  00000+0 0  9992
2 25642  14.5365  25.8617 0006171 250.3195 132.3202  1.00277322 72189
Source of the keplerian elements: AFSPC